Tracking 18624 objects as of 30-April-2017
HD Live streaming from Space Station
objects crossing your sky now

50 SAT

Track 50 SAT now!
10-day predictions
50 SAT is classified as:


NORAD ID: 39436
Int'l Code: 2013-066W
Perigee: 460.3 km
Apogee: 475.3 km
Inclination: 97.7 °
Period: 93.8 minutes
Semi major axis: 6838 km
RCS: Unknown
Launch date: November 21, 2013
Source: (TBD)
Launch site: Orenburg, Russia (OREN)
Uplink (MHz):
Downlink (MHz): 437.505
Beacon (MHz): 437.505
Mode: 9600bps GFSK RTTY CW
Call sign:
Status: Active

Your satellite tracking list
Your tracking list is empty





NASA's NSSDC Master Catalog

Two Line Element Set (TLE):
1 39436U 13066W   17119.79121199 +.00024924 +00000-0 +73175-3 0  9996
2 39436 097.7056 223.4824 0010933 248.1280 111.8800 15.35082661188077
Source of the keplerian elements: Caltech